Orbital Elements at Epoch 2459000.5 (2020-May-31.0) TDB
Reference: JPL 26 (heliocentric ecliptic J2000)
Element | Value | Uncertainty (1-sigma) | Units |
e | .1810378402321395 | 5.4285e-08 | |
a | 2.674092532942315 | 1.5931e-08 | au |
q | 2.189980596197547 | 1.4658e-07 | au |
i | 12.43656306065778 | 5.4262e-06 | deg |
node | 258.2281475434716 | 2.7744e-05 | deg |
peri | 92.10668091286387 | 3.211e-05 | deg |
M | 115.6965718190512 | 1.6591e-05 | deg |
tp | 2458487.188417753253 (2019-Jan-03.68841775) | 7.1641e-05 | TDB |
period | 1597.213873353506 4.37 | 1.4273e-05 3.908e-08 | d yr |
n | .2253924825008845 | 2.0142e-09 | deg/d |
Q | 3.158204469687083 | 1.8815e-08 | au |
|
| | Orbit Determination Parameters
Additional Information
|